FW8288 Weather Reports


Display with metric or nautical units.
time (UTC)temp
F
wind
direction
speed
MPH
gust
MPH
rain 1hr
in
rain 24hr
in
rain mn
in
humidity
%
barometer
mb
20260503203104 82 165 2.0 5.0 0.00 0.00 0.00 31 1020.7
20260503201557 82 165 1.0 5.0 0.00 0.00 0.00 33 1020.9
20260503194600 81 165 1.0 7.0 0.00 0.00 0.00 36 1021.4
20260503193110 81 165 1.0 8.0 0.00 0.00 0.00 33 1021.6
20260503191605 81 165 1.0 4.0 0.00 0.00 0.00 36 1021.8
20260503190058 80 165 1.0 6.0 0.00 0.00 0.00 36 1022.1
20260503184609 80 165 1.0 7.0 0.00 0.00 0.00 36 1022.3
20260503183110 79 165 1.0 6.0 0.00 0.00 0.00 39 1022.5
20260503181609 79 165 3.0 7.0 0.00 0.00 0.00 37 1022.7
20260503180057 79 0 1.0 7.0 0.00 0.00 0.00 37 1022.9
20260503174557 79 165 0.0 3.0 0.00 0.00 0.00 37 1023.1
20260503173102 79 165 2.0 7.0 0.00 0.00 0.00 38 1023.4
20260503171556 77 165 2.0 5.0 0.00 0.00 0.00 40 1023.7
20260503090105 57 0 0.0 0.0 0.00 0.00 0.00 92 1021.8
20260503081629 57 0 0.0 0.0 0.00 0.00 0.00 91 1021.9
20260503080117 57 0 0.0 0.0 0.00 0.00 0.00 91 1021.9
20260503071559 58 0 0.0 0.0 0.00 0.00 0.00 90 1022.0
20260503070107 58 0 0.0 0.0 0.00 0.00 0.00 90 1022.1
20260503060103 59 0 0.0 0.0 0.00 0.00 0.00 88 1021.9
20260503054605 59 0 0.0 0.0 0.00 0.00 0.00 87 1022.0
20260503053102 59 0 0.0 0.0 0.00 0.00 0.00 86 1021.8
20260503051558 60 0 0.0 0.0 0.00 0.00 0.00 86 1021.7
20260503050057 60 0 0.0 0.0 0.00 0.00 0.00 85 1021.6
20260503044608 60 0 0.0 0.0 0.00 0.00 0.00 83 1021.5
20260503043102 61 0 0.0 0.0 0.00 0.00 0.00 82 1021.5
20260503041600 61 0 0.0 0.0 0.00 0.00 0.00 81 1021.5
20260503034603 62 0 0.0 0.0 0.00 0.00 0.00 77 1021.5
20260503033134 63 0 0.0 0.0 0.00 0.00 0.00 76 1021.3
20260503031610 63 0 0.0 0.0 0.00 0.00 0.00 74 1021.2
20260503030110 63 0 0.0 0.0 0.00 0.00 0.00 73 1021.0
20260503024624 64 0 0.0 0.0 0.00 0.01 0.00 71 1021.0
20260503023111 65 0 0.0 0.0 0.00 0.01 0.00 68 1021.0
20260503021605 66 0 0.0 0.0 0.00 0.01 0.00 66 1020.8
20260503020101 66 0 0.0 0.0 0.00 0.01 0.00 62 1020.6
20260503014605 67 0 0.0 0.0 0.00 0.05 0.00 59 1020.5
20260503013058 68 0 0.0 0.0 0.00 0.05 0.00 57 1020.3
20260503011604 69 0 0.0 0.0 0.00 0.05 0.00 56 1020.1
20260503004559 72 0 0.0 2.0 0.00 0.13 0.00 48 1019.9
20260503003101 73 0 0.0 2.0 0.00 0.13 0.00 48 1019.7
20260503001620 73 165 0.0 3.0 0.00 0.13 0.00 48 1019.6
20260503000121 74 0 0.0 3.0 0.00 0.13 0.00 47 1019.3
20260502234617 74 165 1.0 3.0 0.00 0.37 0.00 46 1019.4
20260502233109 74 165 2.0 5.0 0.00 0.37 0.00 45 1019.4
20260502231611 75 165 1.0 3.0 0.00 0.37 0.00 45 1019.3
20260502230057 75 165 1.0 4.0 0.00 0.37 0.00 44 1019.3
20260502224556 75 0 1.0 5.0 0.00 0.40 0.00 45 1019.1
20260502223059 75 165 1.0 4.0 0.00 0.40 0.00 47 1019.3
20260502221603 75 165 3.0 7.0 0.00 0.40 0.00 45 1019.3
20260502220104 76 165 1.0 6.0 0.00 0.40 0.00 45 1019.3
20260502214607 75 165 3.0 6.0 0.00 0.54 0.00 45 1019.3
20260502213056 76 165 3.0 6.0 0.00 0.54 0.00 44 1019.5
20260502211605 76 165 3.0 5.0 0.00 0.54 0.00 45 1019.6
20260502210108 76 165 1.0 7.0 0.00 0.54 0.00 44 1019.6
20260502204557 76 164 2.0 6.0 0.00 0.71 0.00 45 1019.9